www.pogodaiklimat.ru

Погода и климат >> Архив погоды >> Самоа >> Lufi-Lufi


ПОГОДА в Lufi-Lufi

  • Прогноз погоды в Lufi-Lufi
  • Монитор погоды в Lufi-Lufi
  • Климат города

АРХИВ ПОГОДЫ в Lufi-Lufi

Время (UTC), дата Ветер
(напр.,м/с)
 
Видим.   Явления Облачность Т
(С)
Тd
(С)
f
(%)
Тe
(С)
Тes
(С)
Комфортность P
(гПа)
Po
(гПа)
Тmin
(С)
Tmax
(С)
R
(мм)
R24
(мм)
S
(см)
03 8.12 С 2 н/о н/о -40.0 0.0 100 -49 -49 опасность
обморожения
1007.9 1000.9
06 8.12 СВ 2 н/о н/о -40.0 0.0 100 -48 -48 опасность
обморожения
1009.2 1002.2
09 8.12 З 1 н/о н/о -40.0 0.0 100 -45 -45 опасность
обморожения
1011.7 1004.7
12 8.12 ЮЗ 1 н/о н/о -40.0 0.0 100 -42 -42 опасность
обморожения
1009.8 1002.8 -40.0
15 8.12 штиль 0 н/о н/о -40.0 0.0 100 -40 -40 опасность
обморожения
1008.3 1001.3
18 8.12 штиль 0 н/о н/о -40.0 0.0 100 -40 -40 опасность
обморожения
1009.7 1002.7
21 8.12 СЗ 1 н/о н/о -40.0 0.0 100 -45 -45 опасность
обморожения
1010.4 1003.4
00 9.12 СЗ 2 н/о н/о -40.0 0.0 100 -48 -48 опасность
обморожения
1008.4 1001.4 -40.0
03 9.12 З 1 н/о н/о -40.0 0.0 100 -45 -45 опасность
обморожения
1006.8 999.8
06 9.12 З 1 н/о н/о -40.0 0.0 100 -45 -45 опасность
обморожения
1008.4 1001.4
09 9.12 штиль 0 н/о н/о -40.0 0.0 100 -40 -40 опасность
обморожения
1010.2 1003.2
12 9.12 штиль 0 н/о н/о -40.0 0.0 100 -40 -40 опасность
обморожения
1008.7 1001.7 -40.0
15 9.12 штиль 0 н/о н/о -40.0 0.0 100 -40 -40 опасность
обморожения
1007.1 1000.1
18 9.12 штиль 0 н/о н/о -40.0 0.0 100 -40 -40 опасность
обморожения
1008.7 1001.7
21 9.12 штиль 0 н/о н/о -40.0 0.0 100 -40 -40 опасность
обморожения
1010.1 1003.1
00 10.12 СЗ 1 н/о н/о -40.0 0.0 100 -45 -45 опасность
обморожения
1008.9 1001.9 -40.0
03 10.12 Ю 1 н/о н/о -40.0 0.0 100 -42 -42 опасность
обморожения
1007.7 1000.7
06 10.12 штиль 0 н/о н/о -40.0 0.0 100 -40 -40 опасность
обморожения
1010.0 1003.0
09 10.12 СЗ 3 н/о н/о -40.0 0.0 100 -51 -51 опасность
обморожения
1011.5 1004.5
12 10.12 0 н/о -40.0 -10 -10 очень
душно
1010.0 1003.0
15 10.12 СЗ 3 н/о н/о -40.0 0.0 100 -51 -51 опасность
обморожения
1008.9 1001.9
18 10.12 З 1 н/о н/о -40.0 0.0 100 -42 -42 опасность
обморожения
1011.8 1004.8
21 10.12 ЮЗ 1 н/о н/о -40.0 0.0 100 -42 -42 опасность
обморожения
1013.0 1006.0
00 11.12 СВ 1 н/о н/о -40.0 0.0 100 -45 -45 опасность
обморожения
1011.1 1004.1 -40.0
03 11.12 З 1 н/о н/о -40.0 0.0 100 -45 -45 опасность
обморожения
1009.7 1002.7
06 11.12 З 1 н/о н/о -40.0 0.0 100 -42 -42 опасность
обморожения
1011.0 1004.0
09 11.12 СЗ 3 н/о н/о -40.0 0.0 100 -51 -51 опасность
обморожения
1013.3 1006.3
12 11.12 0 н/о -40.0 -5 -5 очень
душно
1012.4 1005.4
15 11.12 Ю 1 н/о н/о -40.0 0.0 100 -42 -42 опасность
обморожения
1011.3 1004.3
18 11.12 штиль 0 н/о н/о -40.0 0.0 100 -40 -40 опасность
обморожения
1013.2 1006.2
21 11.12 СЗ 3 н/о н/о -40.0 0.0 100 -52 -52 опасность
обморожения
1014.4 1007.4
00 12.12 С 3 н/о н/о -40.0 0.0 100 -52 -52 опасность
обморожения
1013.6 1006.6 -40.0
03 12.12 СЗ 1 н/о н/о -40.0 0.0 100 -42 -42 опасность
обморожения
1013.0 1006.0
06 12.12 Ю 1 н/о н/о -40.0 0.0 100 -45 -45 опасность
обморожения
1013.1 1006.1
09 12.12 Ю 1 н/о н/о -40.0 0.0 100 -45 -45 опасность
обморожения
1015.0 1008.0
12 12.12 Ю 1 н/о н/о -40.0 0.0 100 -42 -42 опасность
обморожения
1014.8 1007.8 -40.0
15 12.12 Ю 1 н/о н/о -40.0 0.0 100 -42 -42 опасность
обморожения
1013.7 1006.7
18 12.12 Ю 1 н/о н/о -40.0 0.0 100 -45 -45 опасность
обморожения
1015.8 1008.8
21 12.12 СЗ 1 н/о н/о -40.0 0.0 100 -42 -42 опасность
обморожения
1015.9 1008.9
00 13.12 штиль 0 н/о н/о -40.0 0.0 100 -40 -40 опасность
обморожения
1014.5 1007.5 -40.0
03 13.12 штиль 0 н/о н/о -40.0 0.0 100 -40 -40 опасность
обморожения
1013.4 1006.4
06 13.12 Ю 1 н/о н/о -40.0 0.0 100 -42 -42 опасность
обморожения
1015.5 1008.5
09 13.12 Ю 1 н/о н/о -40.0 0.0 100 -42 -42 опасность
обморожения
1016.4 1009.4
12 13.12 Ю 1 н/о н/о -40.0 0.0 100 -45 -45 опасность
обморожения
1014.7 1007.7 -40.0
15 13.12 Ю 1 н/о н/о -40.0 0.0 100 -42 -42 опасность
обморожения
1013.1 1006.1
18 13.12 В 1 н/о н/о -40.0 0.0 100 -45 -45 опасность
обморожения
1014.9 1007.9
21 13.12 В 2 н/о н/о -40.0 0.0 100 -48 -48 опасность
обморожения
1015.1 1008.1
00 14.12 В 2 н/о н/о -40.0 0.0 100 -48 -48 опасность
обморожения
1013.6 1006.6 -40.0
03 14.12 В 2 н/о н/о -40.0 0.0 100 -48 -48 опасность
обморожения
1012.3 1005.3
06 14.12 ЮВ 1 н/о н/о -40.0 0.0 100 -45 -45 опасность
обморожения
1013.7 1006.7 6
09 14.12 Ю 1 н/о н/о -40.0 0.0 100 -42 -42 опасность
обморожения
1014.7 1007.7
12 14.12 Ю 1 н/о н/о -40.0 0.0 100 -42 -42 опасность
обморожения
1012.9 1005.9 -40.0
15 14.12 В 1 н/о н/о -40.0 0.0 100 -42 -42 опасность
обморожения
1011.9 1004.9 0.5
18 14.12 штиль 0 н/о н/о -40.0 0.0 100 -40 -40 опасность
обморожения
1013.0 1006.0
21 14.12 СВ 1 н/о н/о -40.0 0.0 100 -45 -45 опасность
обморожения
1013.9 1006.9

 

Местоположение метеостанции Lufi-Lufi (Самоа): широта -13.88 долгота -171.56 высота над уровнем моря 48 м.

В архиве по умолчанию представлена погода в Lufi-Lufi за последнюю неделю. Архивные данные за месяц целиком и за предыдущие месяцы, начиная с января 2011 года, Вы можете получить, выбрав интересующий диапазон дат из раскрывающегося списка и нажав кнопку "Ввод!".


*Определитесь, кто Вы:
робот инопланетянин человек

Внимание! Время в таблицах - всемирное. Для получения местного времени необходимо прибавить поправку, которая в Lufi-Lufi равна 13 ч.

Смотрите также архив погоды в соседних городах и на ближайших метеорологических станциях:

Погода в Le Mafa (Самоа) (10 км)
Погода в Apia (Американское Самоа) (18 км)
Погода в Togitogiga (Самоа) (28 км)
Погода в Faleolo Int East (Самоа) (47 км)
Погода в Faleolo Int Airport (Американское Самоа) (48 км)
Погода в Faleolo Int Airport (Самоа) (50 км)
Погода в Manono (Самоа) (59 км)
Погода в Maota Int Airport (Самоа) (77 км)
Погода в Le Piu Tai (Самоа) (101 км)
Погода в Mount Talu (Самоа) (130 км)

Пояснения к столбцам:

Ветер - указаны скорость ветра в м/с - средняя за 10 мин, порывы в срок и между сроками (в фигурных скобках) и направление, откуда дует ветер: С - северный, СВ - северо-восточный, В - восточный, ЮВ - юго-восточный, Ю - южный, ЮЗ - юго-западный, З - западный, СЗ - северо-западный.
Видимость - горизонтальная дальность видимости в метрах или километрах. При видимости от 1 до 10 км при отсутствии осадков обычно наблюдается дымка, при ухудшении видимости до 1 км и менее - туман. В сухую погоду видимость может ухудшаться дымом, пылью или мглою.
Явления - указаны атмосферные явления, наблюдавшиеся в срок или в последний час перед сроком; фигурными скобками обозначены явления, наблюдавшиеся между сроками (за 1-3 часа до срока); квадратными скобками обозначены град или гололедные отложения с указанием их диаметра в мм.
Облачность - указаны через наклонную черту общая и нижняя облачность в баллах и высота нижней границы облаков в метрах; квадратными скобками обозначены формы облаков: Ci - перистые, Cs - перисто-слоистые, Cc - перисто-кучевые, Ac - высококучевые, As - высокослоистые, Sc - слоисто-кучевые, Ns - слоисто-дождевые, Cu - кучевые, Cb - кучево-дождевые. Подробнее классификацию облаков см. в Атласе облаков (PDF).
T - Температура воздуха - температура, измеренная на высоте 2 м над землей.
Td - Температура точки росы - температура, при понижении до которой содержащийся в воздухе водяной пар достигнет насыщения.
f - Относительная влажность воздуха - влажноcть воздуха, измеренная на высоте 2 м над землей.
Te - Эффективная температура - температура, которую ощущает одетый по сезону человек в тени. Характеристика душности погоды. При расчете учитывается влияние влажности воздуха и скорости ветра на теплоощущения человека.
Tes - Эффективная температура на солнце - температура, которую ощущает человек, с поправкой на солнечный нагрев. Характеристика знойности погоды. Зависит от высоты солнца над горизонтом, облачности и скорости ветра. Ночью, в пасмурную погоду, а также при ветре 12 м/с и более поправка равна нулю.
P - Атмосферное давление - приведенное к уровню моря атмосферное давление.
Po - Атмосферное давление - измеренное на уровне метеостанции атмосферное давление.
Tmin - Минимальная температура - минимум температуры воздуха на высоте 2 м над землей.
Tmax - Максимальная температура - максимум температуры воздуха на высоте 2 м над землей.
R - Количество осадков - Количество выпавших осадков за период времени, мм. При наведении курсора мыши на число - период времени, за который выпало указанное количество осадков.
R24 - Количество осадков - Количество выпавших осадков за 24 часа, мм.
S - Снежный покров - Высота снежного покрова, см. При наведении курсора мыши на число - состояние снежного покрова и степень покрытия местности в баллах.